STARLINK-2750, 48691

Orbit data source: Space-Track

STARLINK-2750, 48691 is a payload satellite owned by SpaceX/Seattle (US) in LEO that was launched on Wed, 26 May 2021 UTC via an FALCON 9 launch vehicle from the Air Force Eastern Test Range (AFETR). Payload-class satellites include a variety of spacecraft equipped with specific instruments for various scientific and technological missions. These include communications satellites like Starlink; space stations such as the ISS; scientific satellites like the Hubble; Earth observation satellites from companies like Planet Labs, Umbra, and HawkEye 360; GPS; miniature CubeSats for education and research; and military/defense satellites.

Loading next visibility...
Identifier
48691, 2021-044BF
Orbit
LEO
Country
Flag of USUS
Related business
Manufacturer
SpaceX/Seattle
Mission
Operational Commercial Communications
Bus & Motor
STARLINK, Unknown motor
Mass
260 kg wet, ~248 kg dry
Launch date (UTC)
2021-05-26 (5 years ago)
Launch vehicle
FALCON 9
Launch site
Air Force Eastern Test Range (AFETR)
Object type
Payload
Rocket body
Debris
Shape & HBR
Box + 1 Pan, 10.1 m
Radar Cross Section
13.562 m², Large (>1 m²)

Expand to show TLE details & history
Last TLE update: 1 day ago

TLE from 1 day ago
0 STARLINK-2750
1 48691U 21044BF  25348.61413057  .00005162  00000-0  36525-3 0  9996
2 48691  53.0546  98.5368 0001159  97.6404 262.4716 15.06392368251513
Epoch: 2025-12-14T14:44Z
TLE epoch observation values (Epoch: 2025-12-14T14:44:20.881Z)
Latitude
-0.00006°
Longitude
153.92523°
Altitude
548.219 km
Speed
7.589 km/s
True Right ascension
06h 34m 08s
True Declination
0° 00' 00"
Sunlit
Object was in full shadow at epoch
Visualization orbit readout
Latitude
Unknown
Longitude
Unknown
Altitude
Unknown
Speed
Unknown
Apparent Right ascension
Unknown
Apparent Declination
Unknown
Sunlit
N/A
Visualization observer readout
Local Sidereal Time
13:18:49
Azimuth
Unknown
Elevation
Unknown
Doppler factor
Unknown
Orbital elements
Apogee altitude
548.308 km
Perigee altitude
546.703 km
Semi-major axis
6,925.643 km
Eccentricity
0.00012
Inclination
53.0546°
RAAN
98.5368°
Arg. of periapsis
97.6404°
True anomaly
262.45843°
Mean anomaly
262.4716°
Eccentric anomaly
262.46502°
Mean motion
3.76576 °/min
Orbital period
95.6 mins
BSTAR
0.00036525
Loading maneuver chart data...
Computing Atmospheric mass density...
Loading historical data...
Loading historical data...
Loading historical data...
Loading historical data...
Loading historical data...
Loading historical data...
Loading historical data...

Documentation

Showing up to 5 results
|